Weather Roundup
Issued by NWS

Home | Current Version | Previous Version | Text Only | Print | Product List | Glossary On
Versions: 1 2 3 4 5 6 7 8 9 10 11 12 13 14 15 16 17 18 19 20 21 22 23 24 25 26 27 28 29 30 31 32 33 34 35 36 37 38 39 40 41 42 43 44 45 46 47 48 49 50
582
NZUS93 KARX 180459
HRRWXR

CURRENT HOURLY OBSERVATIONS ACROSS
MUCH OF THE UPPER MISSISSIPPI VALLEY
NATIONAL WEATHER SERVICE LA CROSSE WI
1100 PM CST TUE JAN 17 2017


...SOUTHEAST MINNESOTA...


CITY           SKY/WX    TMP DP  RH WIND       PRES   REMARKS
ROCHESTER      CLOUDY    29  29 100 SW10      30.00S FOG     WCI  20
ROCHESTER/MAYO CLOUDY    31  31 100 SW5       30.01S WCI  26
WINONA         CLOUDY    34  32  93 SW6       30.03F WCI  29
AUSTIN         CLOUDY    28  27  93 SW10      30.02S WCI  19
ALBERT LEA     CLOUDY    28  28 100 SW5       30.01S FOG     WCI  23
DODGE CENTER   CLOUDY    28  28 100 CALM      30.00S FOG
PRESTON        FOG       31  30  96 SW8       30.02S VSB 3/4 WCI  23
OWATONNA       CLOUDY    27  27 100 S6        30.00F FOG     WCI  20
FARIBAULT      CLOUDY    28  28 100 S12       30.01S FOG     WCI  18
$$

...ELSEWHERE IN MINNESOTA...


CITY           SKY/WX    TMP DP  RH WIND       PRES   REMARKS
MINNEAPOLIS    CLOUDY    29  26  89 SW6       29.99F WCI  23
INTNL FALLS    CLOUDY    28  19  69 S7        29.69F WCI  21
DULUTH         CLOUDY    26  20  77 SW14      29.84S WCI  14
RED WING       CLOUDY    34  30  86 W7        30.01R FOG     WCI  28
REDWOOD FALLS  CLOUDY    19  16  88 S7        29.96S WCI  10
MANKATO        CLOUDY    26  25  96 S8        30.00  WCI  18
WORTHINGTON    CLOUDY    26  25  96 SW16      29.97F WCI  14
FAIRMONT       CLOUDY    26  25  96 SW13      30.01S FOG     WCI  15
$$

...SOUTHWEST WISCONSIN...


CITY           SKY/WX    TMP DP  RH WIND       PRES   REMARKS
LA CROSSE      CLOUDY    36  33  89 SW5       30.04R FOG     WCI  32
PRAIRIE DU CHI CLOUDY    34  33  96 W3        30.04S FOG
BOSCOBEL       CLOUDY    35  34  96 W3        30.04R FOG
LONE ROCK      NOT AVBL
PLATTEVILLE    CLOUDY    34  34 100 W8        30.02S VSB 1/2 WCI  27
FORT MC COY    CLOUDY    32  32 100 SW3       30.02S FOG
CAMP DOUGLAS   CLOUDY    32  32 100 W6        29.99S FOG     WCI  26
MAUSTON-NEW LI CLOUDY    34  34  99 W7        29.99R FOG     WCI  28
VIROQUA        CLOUDY    32  32 100 W6        30.00S VSB 1/4 WCI  26
WIS DELLS      CLOUDY    33  33  99 W5        29.98R FOG     WCI  29
$$

...ELSEWHERE IN WISCONSIN...


CITY           SKY/WX    TMP DP  RH WIND       PRES   REMARKS
MILWAUKEE      CLOUDY    36  33  89 W8        29.96R WCI  30
MADISON        CLOUDY    33  33 100 VRB5      30.00R FOG     WCI  29
GREEN BAY      CLOUDY    35  35 100 SW3       29.95R FOG
EAU CLAIRE     NOT AVBL
BLACK RVR FLS  CLOUDY    33  33 100 W6        30.01R FOG     WCI  27
MEDFORD        CLOUDY    29  28  96 W6        29.92S FOG     WCI  23
WAUSAU         CLEAR     29  29 100 W5        29.92S FOG     WCI  24
WIS RAPIDS     FOG       33  33 100 W8        29.98  VSB 3/4 WCI  26
MARSHFIELD     FOG       31  30  96 W9        29.95R VSB 1/4 WCI  23
RICE LAKE      FOG       30  30  99 SW6       29.98R VSB 1/4 WCI  24
$$

...NORTHEAST IOWA...


CITY           SKY/WX    TMP DP  RH WIND       PRES   REMARKS
WATERLOO       FOG       32  31  96 W10       30.07R VSB 1   WCI  24
DUBUQUE        CLOUDY    33  33 100 NW10      30.04R FOG     WCI  25
DECORAH        CLOUDY    32  32 100 VRB5      30.03R FOG     WCI  27
MASON CITY     FOG       29  28  96 SW13      30.05S VSB 3/4 WCI  19
CHARLES CITY   FOG       30  30 100 SW12      30.05S VSB 1/4 WCI  21
OELWEIN        FOG       32  32 100 W8        30.06R VSB 1/2 WCI  25
$$

...ELSEWHERE IN IOWA...


CITY           SKY/WX    TMP DP  RH WIND       PRES   REMARKS
DES MOINES     CLOUDY    32  30  92 W7        30.11R WCI  26
IOWA CITY      CLOUDY    34  33  96 W6        30.11S FOG     WCI  29
FORT DODGE     CLOUDY    28  25  86 MISG      30.07S
MARSHALLTOWN   FOG       31  31 100 W9        30.08R VSB 1/2 WCI  23
CEDAR RAPIDS   FOG       32  32 100 W3        30.07S VSB 3/4
$$

...NORTHERN ILLINOIS...


CITY           SKY/WX    TMP DP  RH WIND       PRES   REMARKS
CHICAGO-OHARE  CLOUDY    35  33  92 W13       29.99S WCI  26
CHICAGO-MIDWAY CLOUDY    34  34 100 W10       30.01R FOG     WCI  26
MOLINE         CLOUDY    35  32  88 W10       30.08R WCI  27
ROCKFORD       CLOUDY    35  33  92 W9        30.04R FOG     WCI  28
PEORIA         CLOUDY    36  34  92 W12G18    30.09S WCI  28
$$

NOTE: "FAIR" INDICATES FEW OR NO CLOUDS BELOW 12,000 FEET WITH NO
SIGNIFICANT WEATHER AND/OR OBSTRUCTIONS TO VISIBILITY. WIND
SPEEDS ARE IN MILES-PER-HOUR.




USA.gov is the U.S. government's official web portal to all federal, state and local government web resources and services.